Location: Vigevano
(45.3170°N, 8.8500°E)
Time: 21:20:38
(UTC+01:00)

ISS - Visible Passes

Search period start: 18 February 2018 00:00
Search period end: 28 February 2018 00:00
Orbit: 403 x 407 km, 51.6° (Epoch: 19 February)

Date Brightness Start Highest point End Pass type
(mag) Time Alt. Az. Time Alt. Az. Time Alt. Az.
24 Feb -0.3 06:33:54 10° SE 06:34:26 10° SE 06:34:58 10° ESE visible
26 Feb -1.4 06:23:24 10° S 06:26:02 22° SE 06:28:40 10° E visible
27 Feb -0.9 05:32:24 10° SSE 05:33:57 13° SE 05:35:30 10° ESE visible
